Find Beidou DW 8

NORAD ID: 37384 Int'l Des: 2011-013 Owner: CNSA Country: CN Constellation: BeiDou operational
HEOCIRCULARGSO

当前视图

正在加载3D地球...

关于 Beidou DW 8

正在加载描述...

即将过境

Passes for default location (London). Set your location on the main map for personalized predictions.

高度历史

Loading altitude history...

两行轨道根数

1 37384U 11013A 26142.76298402 -.00000206 00000-0 00000-0 0 9993
2 37384 62.3739 40.3913 0033909 185.7547 37.1187 1.00274038 55404
Epoch: May 22, 2026 • Age: 100 hours

当前状态

高度 35838.0 km
速度 3.07 km/s
星下点 -57.30°S, 125.81°E
发射日期 Apr 9, 2011
运行时间 15.1 years
类型 navigation

技术详情

分类 Payload
质量 2300.00 kg
干质量 1300.00 kg
总质量 2300.00 kg
长度 3.00 m
直径 1.70 m
跨度 18.00 m
形状 Box + 2 Pan
制造商 CAST
平台类型 DFH-3
阶段状态 In Orbit
所有者/国家 CNSA/CN

Most Searched